TimeEST,TemperatureF,Dew PointF,Humidity,Sea Level PressureIn,VisibilityMPH,Wind Direction,Wind SpeedMPH,Gust SpeedMPH,PrecipitationIn,Events,Conditions,WindDirDegrees,DateUTC
12:00 AM,77.0,73.4,89,29.95,6.2,North,4.6,-,N/A,,Partly Cloudy,10,2014-02-02 05:00:00
1:00 AM,75,71,84,29.96,12,SW,4.6,,,,Scattered Clouds,220,2014-02-02 06:00:00
1:00 AM,75.2,71.6,89,29.95,6.2,SW,4.6,-,N/A,,Partly Cloudy,220,2014-02-02 06:00:00
2:00 AM,75.2,73.4,94,29.92,6.2,NW,5.8,-,N/A,,Partly Cloudy,320,2014-02-02 07:00:00
3:00 AM,75.2,73.4,94,29.92,6.2,NNW,5.8,-,N/A,,Partly Cloudy,330,2014-02-02 08:00:00
4:00 AM,76,74,94,29.93,12,NNW,3.5,,,,Scattered Clouds,330,2014-02-02 09:00:00
4:00 AM,77.0,75.2,94,29.92,6.2,NNW,3.5,-,N/A,,Partly Cloudy,330,2014-02-02 09:00:00
5:00 AM,-9999,-9999,N/A,-9999,-9999.0,North,8.1,-,N/A,,Unknown,360,2014-02-02 10:00:00
6:00 AM,77.0,73.4,89,29.92,6.2,North,8.1,-,N/A,,Scattered Clouds,360,2014-02-02 11:00:00
7:00 AM,75,71,83,29.97,11,NW,6.9,,,,Mostly Cloudy,320,2014-02-02 12:00:00
7:00 AM,75.2,71.6,89,29.95,6.2,NW,6.9,-,N/A,,Scattered Clouds,320,2014-02-02 12:00:00
8:00 AM,77.0,75.2,94,29.98,6.2,NNW,3.5,-,N/A,,Scattered Clouds,330,2014-02-02 13:00:00
9:00 AM,78.8,77.0,94,29.98,6.2,NW,6.9,-,N/A,,Partly Cloudy,310,2014-02-02 14:00:00
10:00 AM,81,75,77,30.00,15,NW,6.9,,,,Haze,320,2014-02-02 15:00:00
10:00 AM,80.6,75.2,84,29.98,6.2,NW,6.9,-,N/A,,Partly Cloudy,320,2014-02-02 15:00:00
11:00 AM,86.0,75.2,70,29.98,6.2,SE,19.6,-,N/A,,Partly Cloudy,140,2014-02-02 16:00:00
12:00 PM,86.0,73.4,66,29.95,6.2,SE,24.2,-,N/A,,Partly Cloudy,140,2014-02-02 17:00:00
1:00 PM,88,74,56,29.94,15,SE,25.3,,,,Haze,140,2014-02-02 18:00:00
1:00 PM,87.8,75.2,66,29.92,6.2,SE,25.3,-,N/A,,Partly Cloudy,140,2014-02-02 18:00:00
2:00 PM,86.0,73.4,66,29.89,6.2,SE,23.0,-,N/A,,Partly Cloudy,140,2014-02-02 19:00:00
3:00 PM,86.0,73.4,66,29.89,6.2,SE,23.0,-,N/A,,Partly Cloudy,140,2014-02-02 20:00:00
4:00 PM,84,74,64,29.88,14,SE,23.0,,,,Haze,140,2014-02-02 21:00:00
4:00 PM,84.2,73.4,70,29.86,6.2,SE,23.0,-,N/A,,Partly Cloudy,140,2014-02-02 21:00:00
5:00 PM,84.2,71.6,66,29.89,6.2,SE,23.0,-,N/A,,Partly Cloudy,140,2014-02-02 22:00:00
6:00 PM,82.4,69.8,66,29.89,6.2,SE,20.7,-,N/A,,Partly Cloudy,130,2014-02-02 23:00:00
7:00 PM,83,73,64,29.92,14,SE,15.0,,,,Haze,130,2014-02-03 00:00:00
7:00 PM,82.4,73.4,74,29.92,6.2,SE,15.0,-,N/A,,Partly Cloudy,130,2014-02-03 00:00:00
8:00 PM,80.6,69.8,70,29.92,6.2,SE,16.1,-,N/A,,Partly Cloudy,130,2014-02-03 01:00:00
9:00 PM,80.6,71.6,74,29.95,6.2,SE,15.0,-,N/A,,Partly Cloudy,140,2014-02-03 02:00:00
10:00 PM,80,72,71,29.96,12,East,9.2,,,,Haze,100,2014-02-03 03:00:00
10:00 PM,80.6,71.6,74,29.95,6.2,East,9.2,-,N/A,,Partly Cloudy,100,2014-02-03 03:00:00
11:00 PM,78.8,71.6,78,29.95,6.2,North,5.8,-,N/A,,Partly Cloudy,10,2014-02-03 04:00:00